Location: Newark
(54.4000°N, 32.4500°E)
Time: 00:31:15
(UTC+00:00)

Envisat - Pass Details

Date: 22 January 2020
Orbit: 764 x 766 km, 98.1° (Epoch: 24 February)

Event Time Altitude Azimuth Distance (km) Brightness Sun altitude
Rises 16:01:04 0° 182° (S) 3,224 6.4 -15.8°
Reaches altitude 10° 16:03:27 10° 189° (S) 2,302 5.7 -16.2°
Maximum altitude 16:08:19 46° 262° (W) 1,031 4.2 -16.8°
Drops below altitude 10° 16:13:14 10° 335° (NNW) 2,318 5.7 -17.5°
Sets 16:15:39 0° 342° (NNW) 3,249 6.4 -17.9°
